STARLINK-3987 (52699 NORAD) Tracking and Keplerian Element Data

This shows tracking and keplerian element data for the satellite.

Feedback or suggestion? Click here.




ElementValue
Catalog52699
NameSTARLINK-3987
Epoch Orbit130
Epoch Day228.91667824
Epoch Year2022
RAAN218.5241
Inclination53.2129
Eccentricity0.0001861
Argument of Perigee48.5167
Mean Anonmoly149.7039
Mean Motion15.08834099
Decay Rate0.00032204
L11 52699U 22053AV 22228.91667824 .00032204 00000+0 20326-2 0 9997
L22 52699 53.2129 218.5241 0001861 48.5167 149.7039 15.08834099 1309

Live tracking and technical data element details for STARLINK-3987 (NORAD 52699). STARLINK-3987 can be tracked NOW for your location showing map with azimuth and elevation plus other details from your city location.

Track the satellite on the map from your city or location and see movement details for azimuth, elevation, latitude, longitude, range, height, and movement on the map or in text.







IsCatalogInMostPopularTable: catalog: 52699, numindb: 7
Update: records affected: 1



GetName: 52699 STARLINK-3987

Hit Count: updated at: Thu, 18 Aug 2022 20:13:14 GMT